Location: Devore Heights
(34.2372°N, 117.4156°W)
Time: 20:53:38
(UTC+00:00)

Tiros 1 despin weight - Pass Details

Date: 17 September 2024
Orbit: 572 x 613 km, 48.2° (Epoch: 13 October)

Event Time Altitude Azimuth Distance (km) Brightness Sun altitude
Exits shadow 12:13:33 10° 318° (NW) 1,951 ? -17.4°
Maximum altitude 12:16:01 15° 352° (N) 1,682 ? -16.9°
Drops below altitude 10° 12:18:36 10° 26° (NNE) 1,977 ? -16.4°
Sets 12:21:53 0° 51° (NE) 2,882 ? -15.7°
